DECSS EDLN-EDLV

Flight info

Callsign DECSS
Flight time 0h 21m
Altitude 2000
Route VFR
Aircraft C210/L-VGD/A

Departure

Time 2026-04-23 14:50
Airport Mönchengladbach Airport (EDLN)

Arrival

Time 2026-04-23 15:11
Airport Weeze (Niederrhein) Airport (EDLV)
Time Latitude Longitude Altitude Speed Heading
2026-04-23 14:44 51.23121 6.49750 126 ft 0 kts 296°
2026-04-23 14:46 51.23145 6.49745 124 ft 7 kts 35°
2026-04-23 14:46 51.23156 6.49836 126 ft 11 kts 102°
2026-04-23 14:47 51.23152 6.49954 123 ft 12 kts 128°
2026-04-23 14:47 51.23094 6.50069 126 ft 15 kts 128°
2026-04-23 14:47 51.23026 6.50206 126 ft 17 kts 128°
2026-04-23 14:47 51.22949 6.50361 123 ft 19 kts 127°
2026-04-23 14:48 51.22863 6.50531 122 ft 21 kts 129°
2026-04-23 14:48 51.22764 6.50720 119 ft 24 kts 128°
2026-04-23 14:48 51.22661 6.50927 124 ft 24 kts 129°
2026-04-23 14:48 51.22632 6.51014 125 ft 0 kts 90°
2026-04-23 14:49 51.22632 6.51015 125 ft 2 kts 90°
2026-04-23 14:49 51.22671 6.51093 122 ft 17 kts 16°
2026-04-23 14:49 51.22776 6.50976 118 ft 32 kts 310°
2026-04-23 14:49 51.23046 6.50451 186 ft 75 kts 312°
2026-04-23 14:50 51.23397 6.49825 470 ft 87 kts 318°
2026-04-23 14:50 51.23683 6.48949 734 ft 102 kts 271°
2026-04-23 14:50 51.23279 6.47907 1028 ft 113 kts 241°
2026-04-23 14:50 51.22846 6.46842 1447 ft 117 kts 225°
2026-04-23 14:51 51.22356 6.45859 1744 ft 113 kts 254°
2026-04-23 14:51 51.22126 6.44593 1901 ft 129 kts 258°
2026-04-23 14:51 51.21865 6.43104 1912 ft 148 kts 259°
2026-04-23 14:51 51.21589 6.41451 1910 ft 159 kts 259°
2026-04-23 14:52 51.21306 6.39727 1907 ft 161 kts 259°
2026-04-23 14:52 51.21119 6.38575 1912 ft 164 kts 259°
2026-04-23 14:52 51.20997 6.36816 1888 ft 156 kts 287°
2026-04-23 14:52 51.21637 6.35533 1889 ft 150 kts 333°
2026-04-23 14:53 51.22661 6.35443 1890 ft 150 kts
2026-04-23 14:53 51.23680 6.35725 1897 ft 150 kts 14°
2026-04-23 14:53 51.24704 6.36068 1897 ft 150 kts
2026-04-23 14:53 51.25742 6.35927 1895 ft 151 kts 349°
2026-04-23 14:54 51.26772 6.35551 1906 ft 153 kts 347°
2026-04-23 14:54 51.27793 6.35152 1900 ft 152 kts 346°
2026-04-23 14:54 51.28820 6.34745 1905 ft 153 kts 346°
2026-04-23 14:54 51.29852 6.34337 1905 ft 152 kts 347°
2026-04-23 14:55 51.30887 6.33927 1903 ft 153 kts 347°
2026-04-23 14:55 51.31857 6.33544 1913 ft 133 kts 347°
2026-04-23 14:55 51.32784 6.33177 1891 ft 142 kts 346°
2026-04-23 14:55 51.33764 6.32789 1901 ft 148 kts 346°
2026-04-23 14:56 51.34771 6.32393 1896 ft 149 kts 346°
2026-04-23 14:56 51.35772 6.31994 1902 ft 147 kts 347°
2026-04-23 14:56 51.36759 6.31600 1903 ft 145 kts 347°
2026-04-23 14:56 51.37739 6.31211 1904 ft 149 kts 346°
2026-04-23 14:57 51.38750 6.30809 1905 ft 150 kts 346°
2026-04-23 14:57 51.39751 6.30413 1907 ft 148 kts 346°
2026-04-23 14:57 51.40744 6.30018 1901 ft 146 kts 346°
2026-04-23 14:57 51.41733 6.29624 1907 ft 147 kts 346°
2026-04-23 14:58 51.42733 6.29227 1905 ft 149 kts 346°
2026-04-23 14:58 51.43734 6.28827 1907 ft 149 kts 346°
2026-04-23 14:58 51.44741 6.28427 1907 ft 149 kts 346°
2026-04-23 14:58 51.45745 6.28028 1911 ft 148 kts 345°
2026-04-23 14:59 51.46747 6.27628 1909 ft 148 kts 345°
2026-04-23 14:59 51.47738 6.27233 1903 ft 148 kts 346°
2026-04-23 14:59 51.48732 6.26836 1905 ft 147 kts 345°
2026-04-23 14:59 51.49730 6.26438 1904 ft 147 kts 346°
2026-04-23 15:00 51.50723 6.26042 1896 ft 146 kts 346°
2026-04-23 15:00 51.51714 6.25646 1892 ft 146 kts 346°
2026-04-23 15:00 51.52699 6.25252 1892 ft 146 kts 346°
2026-04-23 15:00 51.53682 6.24855 1898 ft 146 kts 345°
2026-04-23 15:01 51.54543 6.24029 1895 ft 146 kts 317°
2026-04-23 15:01 51.55225 6.22840 1894 ft 144 kts 315°
2026-04-23 15:01 51.55913 6.21663 1891 ft 139 kts 316°
2026-04-23 15:01 51.56499 6.20653 1872 ft 105 kts 316°
2026-04-23 15:02 51.56957 6.19857 1836 ft 92 kts 316°
2026-04-23 15:02 51.57328 6.19055 1762 ft 93 kts 292°
2026-04-23 15:02 51.57406 6.18016 1634 ft 99 kts 278°
2026-04-23 15:02 51.57424 6.16931 1518 ft 97 kts 276°
2026-04-23 15:03 51.57408 6.15844 1499 ft 97 kts 270°
2026-04-23 15:03 51.57321 6.14775 1469 ft 96 kts 265°
2026-04-23 15:03 51.57184 6.13698 1489 ft 101 kts 263°
2026-04-23 15:03 51.57075 6.12619 1526 ft 97 kts 280°
2026-04-23 15:04 51.57409 6.11761 1543 ft 91 kts 328°
2026-04-23 15:04 51.58031 6.11515 1482 ft 92 kts 352°
2026-04-23 15:04 51.58621 6.11924 1420 ft 98 kts 41°
2026-04-23 15:04 51.58793 6.12992 1411 ft 104 kts 83°
2026-04-23 15:05 51.58750 6.14163 1416 ft 105 kts 88°
2026-04-23 15:05 51.58723 6.15295 1389 ft 100 kts 83°
2026-04-23 15:05 51.58733 6.16376 1421 ft 94 kts 82°
2026-04-23 15:05 51.58679 6.17454 1387 ft 99 kts 91°
2026-04-23 15:06 51.58582 6.18563 1382 ft 102 kts 92°
2026-04-23 15:06 51.58500 6.19662 1448 ft 97 kts 90°
2026-04-23 15:06 51.58416 6.20722 1492 ft 94 kts 86°
2026-04-23 15:06 51.58381 6.21766 1475 ft 92 kts 82°
2026-04-23 15:07 51.58402 6.22793 1530 ft 93 kts 79°
2026-04-23 15:07 51.58403 6.23845 1546 ft 94 kts 81°
2026-04-23 15:07 51.58399 6.24902 1565 ft 91 kts 76°
2026-04-23 15:07 51.58704 6.25641 1549 ft 82 kts 17°
2026-04-23 15:08 51.59225 6.25596 1490 ft 85 kts 345°
2026-04-23 15:08 51.59730 6.25132 1500 ft 85 kts 321°
2026-04-23 15:08 51.60021 6.24321 1566 ft 88 kts 283°
2026-04-23 15:09 51.59962 6.22227 1403 ft 90 kts 276°
2026-04-23 15:09 51.59979 6.21232 1370 ft 86 kts 279°
2026-04-23 15:09 51.60022 6.20264 1209 ft 88 kts 285°
2026-04-23 15:09 51.60085 6.19305 988 ft 86 kts 281°
2026-04-23 15:10 51.60108 6.18655 811 ft 88 kts 274°
2026-04-23 15:10 51.60141 6.17332 503 ft 86 kts 278°
2026-04-23 15:10 51.60187 6.16425 256 ft 81 kts 281°
2026-04-23 15:10 51.60218 6.15558 115 ft 68 kts 274°
2026-04-23 15:11 51.60234 6.14909 107 ft 50 kts 272°
2026-04-23 15:11 51.60241 6.14381 106 ft 45 kts 271°
2026-04-23 15:11 51.60254 6.13905 114 ft 40 kts 274°
2026-04-23 15:11 51.60263 6.13510 112 ft 33 kts 272°
2026-04-23 15:12 51.60269 6.13151 107 ft 29 kts 270°
2026-04-23 15:12 51.60256 6.12954 106 ft 11 kts 194°
2026-04-23 15:12 51.60177 6.12954 104 ft 9 kts 178°
2026-04-23 15:12 51.60160 6.12955 103 ft 0 kts 179°
2026-04-23 15:13 51.60120 6.12950 103 ft 10 kts 188°
2026-04-23 15:13 51.60082 6.13042 104 ft 14 kts 90°
2026-04-23 15:13 51.60078 6.13216 105 ft 17 kts 91°
2026-04-23 15:14 51.60074 6.13419 107 ft 19 kts 93°
2026-04-23 15:14 51.60067 6.13653 107 ft 22 kts 91°
2026-04-23 15:14 51.60061 6.13909 109 ft 23 kts 92°
2026-04-23 15:14 51.60055 6.14169 106 ft 23 kts 91°
2026-04-23 15:15 51.60051 6.14405 106 ft 20 kts 91°
2026-04-23 15:15 51.60049 6.14625 104 ft 19 kts 90°
2026-04-23 15:15 51.60042 6.14808 107 ft 14 kts 99°
2026-04-23 15:15 51.60041 6.14947 108 ft 11 kts 90°
2026-04-23 15:16 51.60040 6.15076 108 ft 12 kts 90°
2026-04-23 15:16 51.60039 6.15222 111 ft 14 kts 94°
2026-04-23 15:16 51.60033 6.15402 113 ft 18 kts 98°
2026-04-23 15:16 51.59963 6.15552 111 ft 16 kts 132°
2026-04-23 15:17 51.59882 6.15658 110 ft 12 kts 139°
2026-04-23 15:17 51.59873 6.15684 110 ft 6 kts 109°
2026-04-23 15:17 51.59887 6.15710 110 ft 0 kts 351°